DELTA 1 DEB (YO), 227

Orbit data source: Space-Track

DELTA 1 DEB (YO), 227 is space debris in LEO originally from a launch on Thu, 08 Feb 1962 UTC launched from the Air Force Eastern Test Range (AFETR). Debris objects in space refer to the collection of defunct objects orbiting the Earth. Examples of debris include non-operational satellites, rocket bodies, and fragments generated from explosions, collisions, or faulty payload assembly.

Loading next visibility...
Identifier
227, 1962-002B
Orbit
LEO
Last TLE update
7 hours ago
Origin
Manufacturer
RCA/East Windsor
Mission
Spacecraft
Bus & Motor
Unknown
Mass
~1 kg wet, ~1 kg dry
Launch date (UTC)
1962-02-08 (63 years ago)
Launch vehicle
Unknown
Launch site
Air Force Eastern Test Range (AFETR)
Object type
Payload
Rocket body
Debris
Shape & HBR
Unknown
Radar Cross Section
Small (<0.1 m²)

Expand to show TLE details & history

TLE from 7 hours ago
0 DELTA 1 DEB (YO)
1   227U 62002B   25129.04837949  .00000333  00000-0  14408-3 0  9993
2   227  48.1489   5.0753 0128093 194.0199 165.7126 14.40327760306813
Epoch: 2025-05-09T01:09Z
Definitive object data (Epoch: 2025-05-09T01:09:39.987Z)
Latitude
0.00002°
Longitude
120.54858°
Altitude
846.39 km
Speed
7.385 km/s
True Right ascension
00h 20m 18s
True Declination
0° 00' 00"
Sunlit
Object was in daylight at TLE epoch
Visualization TLE readout
Latitude
30.04558°
Longitude
150.28604°
Altitude
839.863 km
Speed
7.395 km/s
Apparent Right ascension
03h 07m 53s
Apparent Declination
-2° 30' 51"
Sunlit
Object is in daylight
Visualization observer readout
Local Sidereal Time
16:10:17
Azimuth
24.71° NE
Elevation
-50.012°
Doppler factor
1
Orbital elements
Apogee altitude
849.87 km
Perigee altitude
667.041 km
Semi-major axis
7,136.593 km
Eccentricity
0.0128093
Inclination
48.1489°
RAAN
5.0753°
Arg. of periapsis
194.0199°
True anomaly
166.0693°
Mean anomaly
165.7126°
Eccentric anomaly
165.8915°
Mean motion
3.60004 °/min
BSTAR
0.00014408
Orbital period
100 mins
Loading maneuver chart data...
Loading SW <> Apogee altitude chart data...
Loading historical data...
Loading historical data...
Loading historical data...
Loading historical data...
Loading historical data...
Loading historical data...
Loading historical data...
Other satellites on launch #2 in the year 1962 (1962-02-08 UTC)

DELTA 1 DEB (YO) Visibility forecast

Observer location: undefined°, undefined°

Span
Click to sort rows by Start time (UTC) header in descending order
Start Az.
Max El. time (UTC)
Max El. Az.
Max El.
End time (UTC)
End Az.
10 mins2025-05-09 17:57:11.722Z205.505° SW2025-05-09 18:02:11.722Z146.382° SSE32.321°2025-05-09 18:07:11.722Z73.273° E
9 mins2025-05-09 19:43:11.722Z258.138° W2025-05-09 19:47:11.722Z334.721° NNW41.67°2025-05-09 19:52:11.722Z55.601° ENE
8 mins2025-05-09 21:29:11.722Z299.06° NW2025-05-09 21:33:11.722Z6.802° NNE29.539°2025-05-09 21:37:11.722Z58.999° ENE
9 mins2025-05-09 23:14:11.722Z308.36° NW2025-05-09 23:18:11.722Z10.498° NNE34.712°2025-05-09 23:23:11.722Z88.338° E
9 mins2025-05-10 00:59:11.722Z294.592° NW2025-05-10 01:03:11.722Z226.329° WSW42.198°2025-05-10 01:08:11.722Z134.921° SE
|